, AK

(GMT )
Tin City

Weather History for PATC - May, 2013

Change the Weather History Date:

Thursday, May 9, 2013

  Actual Average Record
Temperature  
Mean Temperature 29 °F -  
Max Temperature 30 °F 29 °F 36 °F (2004)
Min Temperature 28 °F 21 °F 15 °F (2012)
Degree Days  
Heating Degree Days 36    
Moisture  
Dew Point 30 °F    
Average Humidity 100    
Maximum Humidity 100    
Minimum Humidity 100    
Precipitation  
Precipitation 0.00 in - - ()
Sea Level Pressure  
Sea Level Pressure 30.27 in    
Wind  
Wind Speed 21 mph (SSW)    
Max Wind Speed 33 mph    
Max Gust Speed 37 mph    
Visibility 3 miles    
Events Fog , Rain , Snow    
Averages and records for this station are not official NWS values.
T = Trace of Precipitation, MM = Missing Value Source: NWS Daily Summary

Daily Weather History Graph

Daily Weather History Graph

Search for Another Location

Airport or City:

Trip Planner

Search our weather history database for the weather conditions in past years. The results will help you decide how hot, cold, wet, or windy it might be!

Date:

Astronomy

May. 09, 2013 Rise Set
Actual Time 6:00 AM AKDT 12:18 AM AKDT
Civil Twilight 4:14 AM AKDT 2:10 AM AKDT
Nautical Twilight Sun does not set Sun does not set
Astronomical Twilight Sun does not set Sun does not set
Moon 6:08 AM AKDT (5/9) No Moon Set
Length of Visible Light 21h 55m
Length of Day
18h 18m
Waning Crescent, 0% of the Moon is Illuminated
May 9
Waning Crescent
May 9
New
May 17
First Quarter
May 24
Full
May 31
Last Quarter

Hourly Weather History & Observations

Time (AKDT) Temp. Windchill Dew Point Humidity Pressure Visibility Wind Dir Wind Speed Gust Speed Precip Events Conditions
12:55 AM 28.8 °F 12.5 °F 29.1 °F 100% 30.27 in 0.2 mi South 33.4 mph 36.8 mph N/A Fog Light Freezing Fog
1:55 AM - - - N/A% 30.27 in 0.2 mi South 29.9 mph 35.7 mph N/A Fog Light Freezing Fog
2:55 AM - - - N/A% 30.27 in 0.2 mi SSW 19.6 mph - N/A Fog Light Freezing Fog
3:55 AM - - - N/A% 30.27 in 0.2 mi SSW 17.3 mph - N/A Fog Light Freezing Fog
4:55 AM - - - N/A% 30.27 in 0.2 mi SSW 21.9 mph 32.2 mph N/A Fog Light Freezing Fog
5:55 AM 28.6 °F 12.7 °F 29.1 °F 100% 30.26 in 0.2 mi South 31.1 mph - N/A Fog Light Freezing Fog
6:55 AM 28.4 °F 15.1 °F 28.9 °F 100% 30.27 in 0.2 mi SSW 20.7 mph - N/A Fog Light Freezing Fog
7:55 AM - - - N/A% 30.27 in 0.2 mi SSW 16.1 mph 21.9 mph N/A Fog Light Freezing Fog
9:55 AM - - - N/A% 30.29 in 0.2 mi SSW 11.5 mph - N/A Fog Light Freezing Fog
10:55 AM - - - N/A% 30.28 in 0.2 mi South 24.2 mph 26.5 mph N/A Fog Light Freezing Fog
11:55 AM - - - N/A% 30.28 in 0.2 mi South 24.2 mph - N/A Fog Light Freezing Fog
12:55 PM - - - N/A% 30.28 in 0.2 mi South 23.0 mph 25.3 mph N/A Fog Light Freezing Fog
1:55 PM 29.5 °F 15.8 °F 30.0 °F 100% 30.29 in 0.2 mi South 23.0 mph - N/A Fog Fog
2:16 PM 30.2 °F 16.5 °F 30.2 °F 100% 30.28 in 1.2 mi South 24.2 mph - N/A   Mostly Cloudy
2:36 PM 30.2 °F 19.8 °F 30.2 °F 100% 30.28 in 10.0 mi SSW 13.8 mph - N/A   Mostly Cloudy
2:55 PM 29.3 °F 18.2 °F 29.8 °F 100% 30.28 in 7.0 mi SSW 15.0 mph - N/A   Overcast
3:16 PM 30.2 °F 19.3 °F 30.2 °F 100% 30.28 in 5.0 mi SSW 15.0 mph - N/A Rain , Snow Light Freezing Rain
3:36 PM 30.2 °F 19.3 °F 30.2 °F 100% 30.28 in 2.0 mi SSW 15.0 mph - N/A Rain , Snow Light Freezing Rain
3:55 PM 30.2 °F 19.8 °F 30.2 °F 100% 30.26 in 1.2 mi SSW 13.8 mph - N/A Snow Light Snow Showers
4:16 PM 30.2 °F 18.1 °F 30.2 °F 100% 30.27 in 1.5 mi SSW 18.4 mph - N/A Rain , Snow Light Freezing Rain
4:36 PM 30.2 °F 18.9 °F 30.2 °F 100% 30.28 in 1.5 mi SSW 16.1 mph - N/A Snow Light Snow
4:55 PM 29.7 °F 18.6 °F 30.2 °F 100% 30.28 in 0.2 mi SSW 15.0 mph - N/A Fog , Snow Light Snow
5:55 PM 30.2 °F 18.9 °F 30.2 °F 100% 30.25 in 0.8 mi SSW 16.1 mph - N/A Snow Light Snow
6:36 PM 30.2 °F 19.3 °F 30.2 °F 100% 30.27 in 10.0 mi SSW 15.0 mph - N/A Snow Light Snow
6:55 PM 30.0 °F 19.1 °F 30.6 °F 100% 30.27 in 8.0 mi SSW 15.0 mph - N/A Rain Light Freezing Rain
7:16 PM 30.2 °F 19.8 °F 30.2 °F 100% 30.27 in 1.2 mi SSW 13.8 mph - N/A Rain Light Freezing Rain
7:55 PM 29.3 °F 18.2 °F 29.8 °F 100% 30.26 in 10.0 mi SSW 15.0 mph - N/A Rain , Snow Light Freezing Rain
8:36 PM 30.2 °F 18.9 °F 30.2 °F 100% 30.26 in 5.0 mi SSW 16.1 mph - N/A Rain , Snow Light Freezing Rain
8:55 PM 29.3 °F 18.2 °F 29.8 °F 100% 30.26 in 9.0 mi SSW 15.0 mph - N/A Snow Light Snow Showers
9:36 PM - - - N/A% 30.25 in 10.0 mi SSW 13.8 mph - N/A Rain Light Freezing Rain
9:55 PM 29.3 °F 18.6 °F 29.8 °F 100% 30.25 in 6.0 mi SSW 13.8 mph - N/A Rain Light Freezing Rain
10:36 PM - - - N/A% 30.25 in 10.0 mi SSW 12.7 mph - N/A   Unknown
10:55 PM - - - N/A% 30.25 in 10.0 mi SSW 15.0 mph - N/A   Light Freezing Drizzle
11:16 PM - - - N/A% 30.25 in 2.0 mi SSW 13.8 mph - N/A   Light Ice Pellets
11:36 PM - - - N/A% 30.25 in 4.0 mi SSW 15.0 mph - N/A Rain Light Freezing Rain
11:55 PM - - - N/A% 30.25 in 4.0 mi South 16.1 mph - N/A Rain Light Freezing Rain